Tracking 30101 objects as of 13-Dec-2024
HD Live streaming from Space Station
objects crossing your sky now

STARLINK-31366

Track STARLINK-31366 now!
10-day predictions
STARLINK-31366 is classified as:


NORAD ID: 59403
Int'l Code: 2024-064F
Perigee: 450.5 km
Apogee: 451.9 km
Inclination: 43.0 °
Period: 93.5 minutes
Semi major axis: 6822 km
RCS: Unknown
Launch date: April 5, 2024
Source: United States (US)
Launch site: AIR FORCE EASTERN TEST RANGE (AFETR)
Your satellite tracking list
Your tracking list is empty




NASA's NSSDC Master Catalog

Two Line Element Set (TLE):
1 59403U 24064F   24347.76057513 -.00000109  00000-0  46515-5 0  9998
2 59403  42.9999  94.9591 0000982 243.4872 116.5884 15.40700376 40034
Source of the keplerian elements: AFSPC